VND1128 LIME-LIMJ

Flight info

Callsign VND1128
Flight time 0h 29m
Altitude 13000
Route VOG
Aircraft C700/L-SDE3FGHIRWY/LB1

Departure

Time 2026-05-07 10:53
Airport Il Caravaggio International Airport (LIME)

Arrival

Time 2026-05-07 11:22
Airport Genoa Cristoforo Colombo Airport (LIMJ)
Time Latitude Longitude Altitude Speed Heading
2026-05-07 10:30 45.67212 9.69900 755 ft 0 kts 194°
2026-05-07 10:39 45.67213 9.69900 782 ft 1 kts 194°
2026-05-07 10:39 45.67236 9.69910 755 ft 4 kts 199°
2026-05-07 10:39 45.67261 9.69924 755 ft 4 kts 213°
2026-05-07 10:39 45.67278 9.69948 755 ft 4 kts 263°
2026-05-07 10:40 45.67278 9.69959 755 ft 0 kts 284°
2026-05-07 10:42 45.67279 9.69956 755 ft 2 kts 284°
2026-05-07 10:42 45.67289 9.69900 755 ft 10 kts 284°
2026-05-07 10:43 45.67314 9.69765 755 ft 17 kts 284°
2026-05-07 10:43 45.67342 9.69617 755 ft 15 kts 285°
2026-05-07 10:43 45.67331 9.69540 753 ft 8 kts 215°
2026-05-07 10:43 45.67278 9.69488 755 ft 12 kts 213°
2026-05-07 10:44 45.67195 9.69510 754 ft 15 kts 129°
2026-05-07 10:44 45.67159 9.69662 754 ft 18 kts 107°
2026-05-07 10:44 45.67134 9.69801 756 ft 15 kts 105°
2026-05-07 10:44 45.67086 9.69884 755 ft 0 kts 149°
2026-05-07 10:47 45.67069 9.69898 756 ft 6 kts 153°
2026-05-07 10:47 45.67009 9.69941 759 ft 13 kts 153°
2026-05-07 10:47 45.66923 9.70002 769 ft 17 kts 154°
2026-05-07 10:48 45.66796 9.70093 757 ft 19 kts 153°
2026-05-07 10:48 45.66704 9.70210 754 ft 20 kts 108°
2026-05-07 10:48 45.66666 9.70417 756 ft 23 kts 105°
2026-05-07 10:48 45.66622 9.70651 754 ft 26 kts 105°
2026-05-07 10:49 45.66574 9.70909 756 ft 26 kts 104°
2026-05-07 10:49 45.66533 9.71121 754 ft 24 kts 111°
2026-05-07 10:49 45.66476 9.71359 755 ft 27 kts 105°
2026-05-07 10:49 45.66439 9.71583 753 ft 19 kts 94°
2026-05-07 10:50 45.66469 9.71779 755 ft 21 kts 72°
2026-05-07 10:50 45.66451 9.71995 754 ft 24 kts 104°
2026-05-07 10:50 45.66408 9.72224 753 ft 22 kts 105°
2026-05-07 10:50 45.66381 9.72377 754 ft 0 kts 105°
2026-05-07 10:51 45.66380 9.72380 755 ft 2 kts 105°
2026-05-07 10:52 45.66380 9.72443 756 ft 10 kts 57°
2026-05-07 10:52 45.66455 9.72437 755 ft 13 kts 313°
2026-05-07 10:52 45.66473 9.72373 754 ft 0 kts 285°
2026-05-07 10:52 45.66498 9.72233 757 ft 52 kts 285°
2026-05-07 10:53 45.66680 9.71253 761 ft 148 kts 284°
2026-05-07 10:53 45.66986 9.69596 1406 ft 190 kts 284°
2026-05-07 10:53 45.66984 9.67629 2463 ft 198 kts 253°
2026-05-07 10:53 45.66454 9.65885 4127 ft 188 kts 235°
2026-05-07 10:54 45.65538 9.64424 4960 ft 213 kts 226°
2026-05-07 10:54 45.64503 9.62956 5727 ft 201 kts 225°
2026-05-07 10:54 45.63548 9.61605 7369 ft 187 kts 226°
2026-05-07 10:54 45.62626 9.60285 8713 ft 192 kts 226°
2026-05-07 10:55 45.61664 9.58907 10043 ft 202 kts 226°
2026-05-07 10:55 45.60627 9.57423 11020 ft 222 kts 226°
2026-05-07 10:55 45.59529 9.55853 12294 ft 224 kts 226°
2026-05-07 10:55 45.58378 9.54222 13103 ft 250 kts 224°
2026-05-07 10:56 45.56892 9.52936 13095 ft 253 kts 205°
2026-05-07 10:56 45.55225 9.52333 13093 ft 243 kts 188°
2026-05-07 10:56 45.53558 9.52382 13098 ft 240 kts 173°
2026-05-07 10:56 45.51914 9.53088 13109 ft 257 kts 160°
2026-05-07 10:57 45.50220 9.54143 13113 ft 272 kts 159°
2026-05-07 10:57 45.48463 9.55209 13111 ft 275 kts 160°
2026-05-07 10:57 45.46708 9.56261 13108 ft 273 kts 160°
2026-05-07 10:57 45.44968 9.57308 13096 ft 270 kts 160°
2026-05-07 10:58 45.43245 9.58346 13084 ft 268 kts 160°
2026-05-07 10:58 45.41554 9.59363 13074 ft 267 kts 160°
2026-05-07 10:58 45.39783 9.60134 13059 ft 269 kts 174°
2026-05-07 10:58 45.37844 9.60182 13068 ft 292 kts 189°
2026-05-07 10:59 45.35807 9.59369 13067 ft 320 kts 206°
2026-05-07 10:59 45.33886 9.57529 13056 ft 349 kts 224°
2026-05-07 10:59 45.32190 9.54873 13054 ft 373 kts 230°
2026-05-07 10:59 45.30504 9.52052 13044 ft 375 kts 231°
2026-05-07 11:00 45.28810 9.49242 13038 ft 374 kts 230°
2026-05-07 11:00 45.27091 9.46465 13030 ft 374 kts 230°
2026-05-07 11:00 45.25396 9.43728 13027 ft 374 kts 230°
2026-05-07 11:00 45.23688 9.40943 13019 ft 374 kts 230°
2026-05-07 11:01 45.21801 9.38408 12999 ft 376 kts 220°
2026-05-07 11:01 45.19674 9.36248 12994 ft 376 kts 216°
2026-05-07 11:01 45.17482 9.34217 12988 ft 377 kts 214°
2026-05-07 11:01 45.15264 9.32231 12987 ft 376 kts 214°
2026-05-07 11:02 45.13048 9.30270 12987 ft 375 kts 213°
2026-05-07 11:02 45.10834 9.28319 12995 ft 375 kts 214°
2026-05-07 11:02 45.08603 9.26379 12990 ft 377 kts 213°
2026-05-07 11:02 45.06409 9.24450 12987 ft 376 kts 213°
2026-05-07 11:03 45.04196 9.22502 12986 ft 375 kts 213°
2026-05-07 11:03 45.01988 9.20563 12988 ft 368 kts 213°
2026-05-07 11:03 44.99869 9.18707 12985 ft 349 kts 213°
2026-05-07 11:03 44.97868 9.16968 12984 ft 326 kts 213°
2026-05-07 11:04 44.95981 9.15338 12981 ft 311 kts 213°
2026-05-07 11:04 44.94172 9.13781 12982 ft 298 kts 213°
2026-05-07 11:04 44.92452 9.12308 12978 ft 281 kts 213°
2026-05-07 11:04 44.90836 9.10928 12986 ft 272 kts 213°
2026-05-07 11:05 44.89213 9.09546 12986 ft 274 kts 213°
2026-05-07 11:05 44.87598 9.08173 12986 ft 266 kts 213°
2026-05-07 11:05 44.86054 9.06866 12979 ft 251 kts 213°
2026-05-07 11:05 44.84606 9.05649 12984 ft 235 kts 213°
2026-05-07 11:06 44.83231 9.04503 12973 ft 225 kts 213°
2026-05-07 11:06 44.81889 9.03394 12979 ft 223 kts 213°
2026-05-07 11:06 44.80547 9.02291 12979 ft 225 kts 213°
2026-05-07 11:06 44.79173 9.01159 12999 ft 232 kts 213°
2026-05-07 11:07 44.77782 9.00013 13000 ft 230 kts 213°
2026-05-07 11:07 44.76435 8.98907 12990 ft 224 kts 213°
2026-05-07 11:07 44.75101 8.97818 12984 ft 220 kts 213°
2026-05-07 11:07 44.73797 8.96752 12898 ft 212 kts 213°
2026-05-07 11:08 44.72538 8.95725 12595 ft 209 kts 213°
2026-05-07 11:08 44.71282 8.94693 12237 ft 208 kts 213°
2026-05-07 11:08 44.70039 8.93662 11893 ft 207 kts 213°
2026-05-07 11:08 44.68801 8.92623 11562 ft 206 kts 213°
2026-05-07 11:09 44.67572 8.91587 11234 ft 206 kts 213°
2026-05-07 11:09 44.66367 8.90562 10932 ft 205 kts 213°
2026-05-07 11:09 44.65152 8.89522 10615 ft 204 kts 213°
2026-05-07 11:09 44.63942 8.88484 10306 ft 203 kts 213°
2026-05-07 11:10 44.62735 8.87454 10005 ft 202 kts 213°
2026-05-07 11:10 44.61539 8.86437 9704 ft 201 kts 213°
2026-05-07 11:10 44.60345 8.85415 9369 ft 201 kts 213°
2026-05-07 11:10 44.59157 8.84396 9077 ft 199 kts 213°
2026-05-07 11:11 44.57978 8.83377 8742 ft 200 kts 213°
2026-05-07 11:11 44.56814 8.82354 8444 ft 200 kts 213°
2026-05-07 11:11 44.55641 8.81319 8157 ft 198 kts 213°
2026-05-07 11:11 44.54476 8.80297 7851 ft 197 kts 213°
2026-05-07 11:12 44.53318 8.79273 7523 ft 198 kts 213°
2026-05-07 11:12 44.52157 8.78235 7240 ft 197 kts 213°
2026-05-07 11:12 44.51009 8.77206 6965 ft 196 kts 213°
2026-05-07 11:12 44.49858 8.76163 6671 ft 197 kts 213°
2026-05-07 11:13 44.48713 8.75113 6377 ft 197 kts 213°
2026-05-07 11:13 44.47585 8.74069 6093 ft 196 kts 213°
2026-05-07 11:13 44.46454 8.73008 5808 ft 196 kts 213°
2026-05-07 11:13 44.45327 8.71943 5546 ft 195 kts 213°
2026-05-07 11:14 44.44285 8.70750 5251 ft 194 kts 226°
2026-05-07 11:14 44.43381 8.69360 4983 ft 193 kts 228°
2026-05-07 11:14 44.42488 8.67958 4695 ft 193 kts 228°
2026-05-07 11:14 44.41599 8.66559 4419 ft 192 kts 228°
2026-05-07 11:15 44.40711 8.65159 4150 ft 192 kts 228°
2026-05-07 11:15 44.39833 8.63771 4018 ft 186 kts 228°
2026-05-07 11:15 44.39001 8.62454 4005 ft 183 kts 228°
2026-05-07 11:15 44.38147 8.61106 4012 ft 188 kts 228°
2026-05-07 11:16 44.37266 8.59715 4021 ft 193 kts 228°
2026-05-07 11:16 44.36371 8.58304 4020 ft 194 kts 228°
2026-05-07 11:16 44.35476 8.56904 4013 ft 192 kts 225°
2026-05-07 11:16 44.34309 8.56104 3967 ft 188 kts 184°
2026-05-07 11:17 44.33077 8.56591 3704 ft 187 kts 140°
2026-05-07 11:17 44.32236 8.57896 3715 ft 179 kts 128°
2026-05-07 11:17 44.31671 8.59431 3699 ft 184 kts 96°
2026-05-07 11:17 44.31993 8.61127 3722 ft 189 kts 57°
2026-05-07 11:18 44.32821 8.62580 3719 ft 193 kts 45°
2026-05-07 11:18 44.33842 8.63787 3721 ft 192 kts 38°
2026-05-07 11:18 44.34877 8.64927 3633 ft 187 kts 38°
2026-05-07 11:18 44.35912 8.66061 3323 ft 190 kts 38°
2026-05-07 11:19 44.36974 8.67142 3075 ft 188 kts 36°
2026-05-07 11:19 44.37961 8.68332 2796 ft 188 kts 49°
2026-05-07 11:19 44.38671 8.69817 2561 ft 174 kts 61°
2026-05-07 11:19 44.39201 8.71177 2504 ft 153 kts 62°
2026-05-07 11:20 44.39721 8.72474 2515 ft 156 kts 64°
2026-05-07 11:20 44.40280 8.73833 2459 ft 167 kts 62°
2026-05-07 11:20 44.40929 8.75189 2038 ft 167 kts 57°
2026-05-07 11:20 44.41561 8.76504 1584 ft 158 kts 64°
2026-05-07 11:21 44.41957 8.77838 1153 ft 134 kts 77°
2026-05-07 11:21 44.42088 8.79061 748 ft 120 kts 92°
2026-05-07 11:21 44.41993 8.80213 432 ft 118 kts 105°
2026-05-07 11:21 44.41773 8.81284 254 ft 110 kts 106°
2026-05-07 11:22 44.41573 8.82260 96 ft 102 kts 108°
2026-05-07 11:22 44.41394 8.83164 17 ft 85 kts 104°
2026-05-07 11:22 44.41270 8.83770 15 ft 44 kts 106°
2026-05-07 11:22 44.41212 8.84091 16 ft 27 kts 104°
2026-05-07 11:23 44.41222 8.84238 17 ft 9 kts 43°
2026-05-07 11:23 44.41267 8.84322 14 ft 13 kts 53°
2026-05-07 11:23 44.41310 8.84397 14 ft 11 kts 52°
2026-05-07 11:23 44.41356 8.84482 14 ft 7 kts 52°
2026-05-07 11:24 44.41395 8.84551 14 ft 11 kts 52°
2026-05-07 11:24 44.41407 8.84663 14 ft 14 kts 104°
2026-05-07 11:24 44.41387 8.84765 14 ft 6 kts 105°
2026-05-07 11:24 44.41359 8.84778 14 ft 6 kts 189°
2026-05-07 11:25 44.41323 8.84764 14 ft 3 kts 194°
2026-05-07 11:25 44.41316 8.84761 14 ft 0 kts 195°